• Join FlightAware (Why Join?)
  • Login
  • US Flag 
08:37PM EDT


 

Airport Tracker/Info


-or-


 

Live Flight TrackerFlight Track Log ✈ DAL6231 ✈ 31-Mar-2014 ✈ KDTW - KPIT

Flight Track Log - Related Links

Times and Time Zones

All times are in EDT time to prevent confusion due to time zone crossing. See the DAL6231 flight status page for this flight to view local times or setup timezone preferences in your user account.

Time Position Orientation Groundspeed Altitude Reporting Facility
EDT Latitude Longitude Course Direction KTS MPH feet Rate Location/Type
10:46AM 42.2006 -83.3578 188° South 154 177 1,500  Level Cleveland Center
10:47AM 42.1919 -83.3594 188° South 158 182 2,000 1,800 Climbing Cleveland Center
10:48AM 42.1447 -83.3794 197° South 190 219 4,000 2,100 Climbing Cleveland Center
10:49AM 42.0694 -83.3986 191° South 275 316 6,300 2,220 Climbing Cleveland Center
10:49AM 42.0669 -83.3983 175° South 252 290 6,300 2,400 Level Cleveland Center
10:50AM 42.0236 -83.3133 124° Southeast 305 351 8,800 2,580 Climbing Cleveland Center
10:50AM 42.0225 -83.3058 101° East 297 342 9,000 1,020 Climbing Cleveland Center
10:51AM 42.0231 -83.1856 90° East 313 360 10,100 480 Climbing Cleveland Center
10:52AM 42.0356 -83.0558 83° East 348 400 10,100 420 Level Cleveland Center
10:53AM 42.0486 -82.9189 83° East 368 423 11,000 1,620 Climbing Cleveland Center
10:54AM 42.0642 -82.7442 83° East 391 450 13,500 2,160 Climbing Cleveland Center
10:55AM 42.0781 -82.5983 83° East 393 452 15,500 1,680 Climbing Cleveland Center
10:56AM 42.0847 -82.4494 86° East 396 456 17,000 1,020 Climbing Cleveland Center
10:57AM 42.0594 -82.2928 102° East 424 488 17,700 900 Climbing Cleveland Center
10:58AM 42.0347 -82.1247 101° East 438 504 18,900 1,200 Climbing Cleveland Center
10:59AM 41.9536 -81.9986 131° Southeast 447 514 20,300 960 Climbing Cleveland Center
11:00AM 41.8314 -81.8817 145° Southeast 454 522 21,000 300 Climbing Cleveland Center
11:01AM 41.7269 -81.7825 145° Southeast 456 525 21,000  Level Cleveland Center
11:02AM 41.6239 -81.6842 144° Southeast 452 520 21,000  Level Cleveland Center
11:03AM 41.5197 -81.5856 145° Southeast 452 520 21,000  Level Cleveland Center
11:04AM 41.4133 -81.4872 145° Southeast 452 520 21,000  Level Cleveland Center
11:05AM 41.3081 -81.3883 145° Southeast 452 520 21,000 -840 Level Cleveland Center
11:06AM 41.2044 -81.2922 145° Southeast 450 518 19,400 -1,680 Descending Cleveland Center
11:07AM 41.1075 -81.1956 143° Southeast 438 504 17,600 -1,860 Descending Cleveland Center
11:09AM 41.0494 -81.0606 120° Southeast 419 482 15,600 -1,980 Descending Cleveland Center
11:10AM 40.9939 -80.9306 119° Southeast 409 471 13,600 -1,980 Descending Cleveland Center
11:11AM 40.9408 -80.8008 118° Southeast 404 465 11,600 -1,740 Descending Cleveland Center
11:12AM 40.8464 -80.6822 136° Southeast 397 457 10,100 -840 Descending Cleveland Center
11:13AM 40.7644 -80.5911 140° Southeast 389 448 10,000 -600 Descending Cleveland Center
11:14AM 40.7394 -80.4864 107° East 304 350 8,900 -1,500 Descending Cleveland Center
11:15AM 40.6781 -80.4097 137° Southeast 298 343 7,000 -1,380 Descending Cleveland Center
11:16AM 40.6261 -80.3339 132° Southeast 294 338 6,100 -600 Descending Cleveland Center
11:17AM 40.5806 -80.2517 126° Southeast 286 329 5,800 -960 Descending Cleveland Center
11:18AM 40.5386 -80.1644 122° Southeast 274 315 4,200 -960 Descending Cleveland Center
11:19AM 40.4972 -80.0825 124° Southeast 268 308 3,900 -540 Descending Cleveland Center
11:20AM 40.4369 -80.0411 152° Southeast 249 287 3,100 -600 Descending Cleveland Center
11:21AM 40.4122 -80.0939 238° Southwest 187 215 2,700 -540 Descending Cleveland Center
11:22AM 40.4339 -80.1475 298° West 156 180 2,100 -540 Descending Cleveland Center
11:23AM 40.4619 -80.1825 316° Northwest 146 168 1,600 -540 Descending Cleveland Center